Vorticity
nan nan nan nan nan nan nan nan nan nan nan nan nan nan nan nan nan nan nan nan nan nan nan nan nan nan nan nan nan nan nan nan nan nan nan nan nan nan nan nan nan nan nan nan nan nan nan nan nan nan nan nan nan nan nan nan nan nan nan nan nan nan nan nan nan nan nan nan nan
nan 7 5 4 4 6 9 11 11 9 7 8 10 10 8 8 10 9 9 5 1 4 10 19 19 16 14 14 15 15 14 14 12 9 10 13 11 8 4 4 6 7 9 9 7 7 11 10 4 3 5 9 10 10 9 10 12 14 13 6 4 8 11 10 10 11 9 5 nan
nan 10 9 6 3 2 3 8 10 9 6 5 6 8 8 8 9 10 9 6 -0 0 5 15 21 20 15 10 11 15 16 16 14 9 8 12 14 11 6 5 6 5 6 8 8 7 10 8 4 5 6 9 10 10 10 10 10 13 15 7 2 7 10 11 12 10 8 9 nan
nan 12 12 14 9 4 -1 4 9 9 7 7 9 8 8 8 8 8 8 6 3 2 3 9 17 20 17 12 11 13 14 17 16 11 8 9 12 12 9 7 6 4 3 6 8 8 9 5 2 6 10 12 11 9 8 10 9 8 12 10 7 10 10 10 10 9 8 11 nan
nan 17 17 20 18 11 6 6 8 7 6 7 8 8 8 8 8 7 7 8 6 3 1 4 13 17 19 16 13 11 13 14 12 12 12 12 11 10 10 8 6 5 5 6 7 8 10 4 -1 7 12 11 9 10 10 11 8 5 6 9 11 11 12 10 9 9 8 9 nan
nan 23 22 21 19 12 9 12 13 8 5 7 7 4 2 4 6 5 3 3 4 4 5 10 14 16 19 18 12 9 9 11 10 12 14 13 12 12 11 9 7 5 6 7 8 7 7 1 -1 7 10 12 12 12 12 9 6 6 6 8 10 11 12 10 8 9 10 11 nan
nan 29 27 22 16 10 8 10 14 12 8 9 11 5 -1 -2 1 2 0 -1 3 7 10 16 17 16 17 17 13 10 8 9 12 13 11 11 12 12 11 11 9 7 6 7 7 7 5 0 0 6 9 11 14 16 13 9 7 8 7 5 7 11 13 10 8 11 15 14 nan
nan 33 26 19 15 12 10 8 9 10 9 9 14 11 5 1 2 3 2 2 3 5 8 15 19 16 14 13 10 10 11 11 12 13 10 11 12 10 11 11 10 9 8 8 8 7 3 -0 2 6 7 10 13 16 16 12 7 7 7 5 4 8 9 10 12 14 17 16 nan
nan 30 23 16 14 14 14 13 10 8 7 7 9 9 8 7 7 7 6 5 5 6 8 15 22 18 14 10 8 7 9 12 14 12 11 12 12 11 10 12 13 11 9 10 10 8 1 -1 2 4 6 9 11 14 17 15 10 6 4 4 6 8 9 11 13 12 14 14 nan
nan 25 20 16 15 15 15 14 13 11 8 7 8 7 6 7 9 8 6 5 7 9 10 15 21 19 16 9 8 8 7 8 14 14 12 11 12 11 9 11 13 12 10 10 12 11 4 1 4 4 6 9 11 11 14 15 12 7 1 3 10 12 9 10 13 11 9 11 nan
nan 26 22 20 18 16 15 13 13 13 12 11 10 8 6 6 7 7 4 2 6 11 13 13 17 19 18 12 8 10 8 6 11 14 13 11 12 12 10 10 12 12 11 8 9 11 8 7 11 10 7 7 10 10 11 13 13 9 3 4 10 10 9 9 10 10 9 11 nan
nan 30 28 23 19 17 15 11 11 14 14 12 10 9 8 8 7 6 5 3 7 12 16 16 16 17 17 15 12 10 10 9 8 11 13 13 12 11 10 10 11 11 11 8 7 9 12 12 14 14 11 6 6 10 13 14 12 11 8 6 6 7 9 9 7 6 9 12 nan
nan 28 28 23 18 15 13 10 9 13 15 13 9 9 8 8 9 8 10 10 10 13 16 17 16 16 16 16 14 10 8 11 10 9 11 13 12 12 11 10 11 10 10 8 7 9 11 13 13 13 12 7 5 11 14 14 12 11 10 8 5 5 7 9 7 6 8 9 nan
nan 23 23 20 16 12 11 9 8 11 14 12 9 8 8 9 11 13 15 16 13 12 13 14 14 15 16 14 14 12 3 7 13 9 8 10 12 13 11 11 11 9 8 9 10 9 8 9 12 12 11 7 6 10 12 12 12 11 11 9 6 4 5 6 7 7 8 7 nan
nan 21 19 17 15 11 11 9 8 12 15 13 9 8 8 11 15 17 18 17 13 10 10 10 11 14 15 13 13 12 -0 3 15 12 9 9 12 13 12 12 11 9 7 9 10 10 9 9 10 11 11 8 6 8 9 11 11 10 11 11 9 6 4 5 6 6 9 9 nan
nan 20 16 15 14 11 12 10 10 16 17 16 14 12 11 13 19 22 21 17 12 10 9 8 10 14 18 18 14 12 1 3 14 15 13 12 13 15 14 13 12 11 10 9 9 9 10 9 10 12 12 9 6 6 8 10 10 10 10 10 10 9 7 7 7 7 9 10 nan
nan 20 17 13 11 9 10 10 11 16 18 19 17 15 14 15 18 21 22 18 15 14 12 8 8 14 22 24 20 16 8 6 12 14 14 14 15 15 15 13 13 14 13 12 11 10 9 8 9 11 12 10 7 6 7 8 9 10 10 9 9 9 8 8 8 9 11 11 nan
nan 19 19 18 14 10 9 9 9 12 15 17 16 16 15 15 15 17 19 18 17 18 15 8 6 12 21 24 21 18 16 12 11 11 12 13 14 13 12 11 12 13 13 12 11 11 10 7 6 9 11 10 8 7 7 7 9 10 10 9 8 8 8 8 7 9 12 14 nan
nan 15 17 20 20 17 14 11 10 11 14 15 15 15 15 15 13 12 13 14 15 17 15 9 8 12 16 17 15 14 15 14 10 9 9 10 10 10 9 8 9 10 9 8 9 10 9 7 5 7 9 9 8 7 7 7 8 9 10 10 9 9 8 8 7 8 11 14 nan
nan 13 13 15 16 17 18 16 13 12 13 14 13 12 12 14 12 10 10 10 12 13 11 9 9 10 11 11 10 10 10 11 10 7 6 7 8 8 7 7 8 8 7 6 7 9 8 6 5 8 9 9 9 8 7 6 7 8 8 9 11 10 9 9 8 7 9 12 nan
nan 15 16 16 13 11 12 14 14 12 10 11 11 10 10 11 11 11 10 10 11 11 10 9 8 6 6 7 8 8 7 9 9 8 7 6 8 8 8 9 10 10 10 9 10 10 9 7 7 7 9 10 9 8 6 6 7 8 6 7 10 10 10 9 9 8 8 10 nan
nan 20 22 20 15 11 11 13 14 11 9 8 8 8 10 11 11 12 12 10 10 10 9 10 8 6 5 5 6 7 6 9 9 9 8 9 9 11 11 13 14 13 13 12 11 12 10 9 9 8 7 9 9 8 7 7 7 8 7 7 8 9 9 10 9 8 7 8 nan
nan 21 25 24 18 16 14 13 11 10 10 10 10 9 10 11 11 11 11 10 9 9 9 10 11 10 7 5 5 8 10 12 10 9 9 9 10 13 13 14 15 13 10 11 12 12 11 11 10 9 7 8 9 8 8 7 7 9 9 9 8 8 9 10 9 8 6 6 nan
nan 18 25 24 21 22 20 16 12 11 12 13 13 13 13 12 10 10 11 12 11 9 7 9 14 17 15 9 6 8 13 16 14 12 10 8 9 13 13 12 12 11 8 10 13 13 11 11 12 11 9 9 10 10 11 10 10 11 12 11 10 9 9 10 9 8 8 7 nan
nan 16 17 17 19 22 23 21 19 19 17 17 16 15 14 12 9 10 11 14 14 12 10 9 16 21 21 14 8 7 12 17 18 16 15 11 9 11 11 11 10 9 7 13 19 17 12 10 12 12 11 11 12 12 14 15 14 14 13 13 11 10 10 12 13 14 14 11 nan
nan 15 14 13 14 14 16 17 18 17 17 18 18 16 15 11 9 10 10 12 14 15 14 11 14 17 18 14 10 8 7 11 16 17 15 14 13 10 7 8 9 8 8 17 24 20 14 10 10 11 12 11 12 13 14 15 14 13 11 10 10 10 10 13 17 17 15 11 nan
nan 14 14 13 12 11 12 12 11 10 11 12 15 16 16 14 13 13 12 11 12 12 9 9 11 12 13 14 13 11 5 5 11 12 10 11 12 10 6 7 8 7 10 20 24 19 13 9 9 10 11 11 12 11 9 8 7 6 6 7 9 10 10 12 15 13 11 10 nan
nan 13 13 13 12 12 11 11 11 11 11 13 14 15 15 14 15 16 17 14 11 8 5 9 11 9 11 14 16 19 17 11 10 11 7 6 10 9 8 9 8 7 12 20 21 16 11 8 8 8 9 10 10 8 5 3 5 6 8 9 11 12 12 12 13 13 11 10 nan
nan 14 13 13 12 12 11 11 11 12 13 15 16 17 18 18 16 15 16 17 14 11 8 9 10 12 15 15 14 20 22 20 19 18 14 11 11 10 11 12 11 10 16 19 17 12 9 7 7 7 7 9 9 9 9 9 10 12 12 11 12 13 15 14 13 13 13 13 nan
nan 14 13 12 12 12 11 11 12 14 16 16 16 19 23 25 23 20 17 16 17 16 16 15 14 17 20 18 14 14 15 17 20 22 21 19 15 14 15 18 18 18 21 19 14 10 9 8 9 11 13 18 20 21 21 22 20 18 16 18 17 12 8 9 13 14 13 15 nan
nan 14 13 13 12 12 12 12 14 15 17 16 15 18 21 25 28 29 26 21 19 20 23 21 19 17 16 15 14 13 13 14 16 17 18 18 16 14 14 14 17 22 28 25 17 15 17 18 19 20 22 25 27 28 29 30 29 27 26 31 36 34 28 18 11 9 10 15 nan
nan 14 13 13 12 12 12 13 15 15 15 15 15 16 17 20 26 30 32 28 24 22 21 18 14 13 12 13 13 13 13 14 15 16 15 13 12 11 10 9 12 22 33 33 23 22 23 24 22 20 18 18 18 18 20 21 20 20 19 23 33 43 49 48 39 28 14 6 nan
nan 14 13 13 12 12 13 14 15 15 14 13 13 14 16 18 21 25 27 26 21 18 15 14 12 11 11 11 11 11 11 12 14 16 17 15 13 12 13 13 15 23 34 34 23 20 17 15 13 11 10 10 11 11 12 13 11 10 9 11 15 21 29 38 47 50 41 20 nan
nan 14 14 13 13 13 13 14 15 14 14 12 12 13 15 16 18 20 21 20 16 13 11 11 11 11 11 11 11 11 12 12 13 14 16 16 15 14 15 17 19 24 32 28 16 11 9 7 7 7 6 6 8 9 10 12 12 11 11 10 11 12 13 14 21 31 42 45 nan
nan 14 14 13 13 13 13 14 15 14 13 12 11 12 14 15 16 17 18 17 15 13 12 11 11 11 11 12 11 11 12 14 13 13 14 15 14 14 14 17 19 21 28 21 11 7 6 6 6 5 4 4 6 6 6 6 8 9 10 10 10 10 12 14 13 15 20 32 nan
nan 14 14 13 13 13 14 14 14 13 12 11 11 12 13 14 15 16 17 17 15 14 12 11 11 11 11 11 10 10 10 11 12 12 12 12 12 12 11 12 12 14 19 18 12 8 7 7 6 4 4 5 7 7 5 3 3 3 5 7 8 8 9 9 10 12 15 18 nan
nan 13 13 13 13 13 14 14 14 13 12 11 11 12 12 13 14 15 16 15 13 11 11 11 11 11 11 11 11 11 11 11 11 11 11 12 12 11 10 10 10 11 14 17 16 11 9 9 7 6 6 8 9 8 6 5 4 2 2 4 6 6 7 5 4 7 12 19 nan
nan 13 13 13 13 13 14 14 13 12 12 12 12 12 13 13 12 12 14 15 12 10 9 10 9 10 10 10 9 9 11 13 12 11 11 12 12 12 11 10 10 12 13 17 18 15 12 12 11 11 11 11 9 8 6 7 7 6 4 3 3 5 9 8 3 1 3 12 nan
nan 13 13 13 13 13 13 13 13 12 12 12 13 13 14 15 13 13 13 14 13 11 9 9 9 10 9 9 8 7 9 12 12 12 11 11 12 13 13 10 10 12 12 17 19 16 13 13 13 14 14 11 9 8 7 8 8 8 7 6 4 3 7 10 7 2 -3 -2 nan
nan 13 13 13 12 12 12 12 13 13 12 12 12 12 13 15 15 15 14 14 12 11 8 7 9 10 10 8 7 7 8 10 11 12 13 12 12 12 13 11 10 10 10 14 19 18 15 13 13 14 14 10 8 9 8 8 8 9 9 8 6 4 4 7 8 5 -0 -6 nan
nan nan nan nan nan nan nan nan nan nan nan nan nan nan nan nan nan nan nan nan nan nan nan nan nan nan nan nan nan nan nan nan nan nan nan nan nan nan nan nan nan nan nan nan nan nan nan nan nan nan nan nan nan nan nan nan nan nan nan nan nan nan nan nan nan nan nan nan nan
CAPE
nan nan nan nan nan nan 1 nan nan nan nan nan nan nan nan nan nan nan nan nan 10 86 86 148 53 56 56 164 451 451 754 930 991 576 576 781 1107 1141 1141 1174 1175 1237 1237 1306 1374 1374 1298 1155 1030 1030 981 832 805 664 664 651 814 791 791 733 673 587 587 490 460 460 476 579 637
nan nan nan nan nan nan 0 nan nan nan nan nan nan nan nan nan nan nan nan nan 4 82 82 350 98 55 55 121 323 323 709 880 969 876 876 936 1030 1036 1036 1127 1184 1241 1241 1311 1319 1319 1284 1166 1072 1072 987 937 790 622 622 569 736 841 841 782 744 653 653 575 457 457 454 489 568
nan nan nan nan 0 0 1 nan nan nan nan nan nan 0 0 0 nan nan nan nan 3 115 115 177 352 29 29 128 358 358 604 862 948 1044 1044 1042 1009 1016 1016 1048 1191 1100 1100 1255 1388 1388 1296 1178 945 945 729 1124 627 580 580 588 683 840 840 780 767 696 696 639 498 498 452 422 520
0 nan nan nan nan nan nan nan nan nan nan nan nan 0 0 0 nan nan nan nan 2 86 86 178 196 100 100 82 310 310 554 451 833 990 990 1022 1017 1023 1023 995 1077 1221 1221 1385 1458 1458 1302 1148 952 952 918 834 580 541 541 571 631 785 785 779 766 714 714 632 538 538 488 394 468
5 nan nan nan nan nan 0 nan nan nan nan nan nan 0 0 2 0 nan nan nan nan 56 56 257 193 239 239 76 285 285 535 522 159 935 935 967 1030 1029 1029 969 964 1105 1105 1329 1528 1528 1434 1133 933 933 953 740 576 509 509 519 653 731 731 777 707 676 676 621 528 528 433 346 416
9 nan nan nan nan nan 0 nan nan nan nan nan 0 0 0 2 1 nan nan nan nan 48 48 136 111 33 33 208 455 455 460 649 488 849 849 943 1008 1008 1008 943 938 1051 1051 1274 1505 1505 1392 1092 882 882 850 900 560 507 507 566 622 724 724 770 719 659 659 540 470 470 417 352 384
1 nan nan nan nan nan nan nan nan nan nan nan 0 1 1 2 2 nan nan nan 1 62 62 86 78 41 41 162 357 357 388 584 677 796 796 889 950 892 892 890 860 1001 1001 1192 1430 1430 1354 1076 844 844 621 619 695 573 573 657 610 711 711 754 725 644 644 506 411 411 360 376 370
nan nan nan nan nan nan nan nan 0 0 1 0 1 2 2 3 5 nan nan nan 8 78 78 174 251 131 131 112 198 198 417 608 628 713 713 803 863 895 895 838 837 980 980 1141 1341 1341 1288 1041 873 873 774 788 751 687 687 720 646 641 641 733 757 679 679 516 396 396 346 362 353
nan nan nan nan nan nan nan nan 1 1 4 2 3 4 4 8 12 5 5 2 8 103 103 258 239 167 167 144 179 179 433 672 635 660 660 746 808 870 870 842 871 930 930 1057 1262 1262 1233 983 934 934 770 755 753 730 730 787 656 598 598 713 766 713 713 592 444 444 370 364 332
nan nan nan nan nan nan nan 1 5 5 8 5 6 6 6 1 13 12 12 3 17 216 216 349 224 195 195 208 195 195 371 649 712 729 729 661 753 902 902 845 877 909 909 1035 1158 1158 1131 1021 834 834 697 662 623 827 827 914 722 609 609 644 723 773 773 621 472 472 393 306 309
32 nan nan nan nan nan nan 3 8 8 11 13 9 14 14 9 25 16 16 14 127 323 323 306 231 211 211 213 324 324 381 661 853 804 804 727 670 905 905 908 913 947 947 1039 1126 1126 985 946 855 855 697 652 715 982 982 1019 791 594 594 580 683 834 834 674 517 517 392 283 304
130 1 1 nan nan nan 1 5 12 12 20 23 23 32 32 50 50 33 33 82 281 370 370 341 242 222 222 173 259 259 241 697 958 907 907 854 909 973 973 916 952 953 953 1074 1201 1201 939 925 900 900 837 705 756 1065 1065 1070 833 660 660 546 622 841 841 724 560 560 433 318 280
130 16 16 nan nan nan 1 5 11 11 23 29 34 52 52 58 57 77 77 165 274 349 349 303 214 181 181 198 201 201 412 790 1003 964 964 950 1006 1042 1042 1013 1015 1017 1017 1171 1180 1180 895 994 996 996 900 780 816 929 929 1062 906 750 750 604 495 769 769 726 631 631 476 335 274
99 43 43 0 0 0 1 3 7 7 17 30 38 52 52 57 59 120 120 195 275 313 313 270 140 108 108 185 129 129 425 883 991 1118 1118 1073 1133 1163 1163 1164 1103 1142 1142 1176 1003 1003 854 943 1058 1058 981 875 826 865 865 996 891 756 756 635 500 577 577 655 684 684 522 390 234
80 66 66 10 1 1 2 3 5 5 8 12 19 38 38 56 52 110 110 194 233 335 335 354 170 54 54 152 124 124 331 1010 1052 1090 1090 1140 1290 1217 1217 1191 1202 1211 1211 1090 871 871 783 947 1082 1082 971 861 836 833 833 929 847 714 714 576 484 408 408 520 668 668 595 451 342
131 76 76 69 9 9 5 6 12 12 11 6 3 23 23 73 110 115 115 138 195 328 328 443 429 328 328 189 132 132 301 972 1151 1205 1205 1212 1349 1248 1248 1168 1182 1124 1124 917 800 800 734 980 1138 1138 991 853 804 744 744 859 801 698 698 561 431 280 280 301 464 464 573 497 386
191 92 92 102 89 89 55 35 50 50 52 50 44 91 91 151 203 84 84 113 155 206 206 415 498 604 604 60 157 157 405 837 1030 1135 1135 1228 1244 1228 1228 1182 1189 946 946 802 828 828 906 1067 1134 1134 982 815 767 706 706 786 755 705 705 570 416 248 248 73 153 153 457 406 264
156 188 188 196 163 163 175 152 138 138 75 58 74 48 48 49 34 26 26 28 194 278 278 453 942 865 865 776 759 759 431 912 1056 970 970 943 993 941 941 1094 963 961 961 988 1046 1046 973 929 1050 1050 929 764 659 578 578 581 605 629 629 557 460 363 363 266 201 201 283 368 154
133 144 144 219 131 131 245 289 194 194 172 127 133 109 109 57 140 248 248 332 175 439 439 812 882 919 919 916 812 812 112 573 873 830 830 936 882 881 881 961 863 797 797 839 876 876 866 906 1005 1005 914 751 645 541 541 504 547 588 588 556 477 419 419 317 269 269 367 419 317
131 169 169 188 191 191 214 321 318 318 266 204 183 148 148 211 319 276 276 361 317 445 445 522 480 625 625 817 778 778 479 443 693 703 703 802 738 700 700 687 628 540 540 635 709 709 722 801 927 927 902 734 582 530 530 492 510 566 566 594 535 434 434 368 318 318 387 422 393
170 113 113 121 156 156 180 358 321 321 281 210 189 154 154 195 307 296 296 217 269 309 309 268 345 319 319 515 614 614 486 237 467 528 528 528 525 492 492 474 523 513 513 609 768 768 824 865 856 856 857 691 594 539 539 477 472 543 543 568 595 508 508 465 353 353 320 381 403
95 135 135 101 211 211 140 249 382 382 334 310 269 154 154 213 264 198 198 217 211 261 261 191 241 227 227 350 593 593 528 240 287 316 316 444 547 494 494 553 711 817 817 927 957 957 946 903 813 813 803 700 648 500 500 458 492 518 518 565 575 559 559 491 422 422 304 305 369
7 193 193 212 240 240 90 187 290 290 324 305 382 291 291 332 214 107 107 163 105 271 271 224 163 142 142 168 487 487 717 354 142 212 212 548 771 896 896 1025 1127 1080 1080 1079 1028 1028 978 899 763 763 710 663 608 544 544 559 467 557 557 592 558 469 469 377 285 285 208 217 341
4 26 26 271 262 262 331 262 148 148 147 236 392 517 517 360 207 85 85 111 206 429 429 404 192 109 109 82 344 344 954 523 159 206 206 574 936 1224 1224 1293 1387 1276 1276 1149 512 512 330 531 851 851 746 717 632 627 627 666 590 536 536 502 394 310 310 223 102 102 67 101 276
8 8 8 27 90 90 166 170 99 99 139 124 197 248 248 160 142 48 48 47 259 666 666 765 370 68 68 28 216 216 893 915 672 418 418 540 858 1286 1286 1477 1627 1613 1613 487 nan nan nan nan 232 232 812 798 703 652 652 601 525 446 446 341 263 237 237 165 61 61 52 90 197
11 10 10 9 7 7 5 3 16 16 68 132 214 205 205 173 129 104 104 45 170 605 605 904 517 nan nan 59 134 134 636 1132 1229 1070 1070 1059 967 894 894 1124 1061 1136 1136 nan nan nan nan nan nan nan nan 919 665 498 498 423 385 324 324 268 223 225 225 174 146 146 142 101 111
9 10 10 9 5 5 3 1 1 1 2 2 55 131 131 198 244 267 267 159 97 218 218 651 357 17 17 209 279 279 522 881 1108 1130 1130 1275 892 662 662 570 584 645 645 nan nan nan nan nan nan nan nan 570 590 382 382 285 228 231 231 234 234 255 255 218 166 166 113 121 79
9 9 9 8 6 6 5 3 1 1 1 1 2 22 22 97 190 320 320 293 220 173 173 436 230 139 139 358 717 717 651 598 776 884 884 1249 876 566 566 467 552 nan nan nan nan nan nan nan nan nan nan nan 604 260 260 116 66 82 82 151 198 240 240 222 171 171 125 112 78
7 8 8 7 6 6 5 3 2 2 3 2 2 11 11 64 106 199 199 349 378 321 321 328 359 570 570 273 252 252 229 368 575 642 642 1140 1006 737 737 555 361 nan nan nan nan nan nan nan nan nan nan nan 150 202 202 54 45 53 53 97 154 175 175 181 148 148 120 101 60
8 7 7 6 5 5 4 3 3 3 3 5 3 3 3 41 121 174 174 236 403 496 496 340 238 134 134 23 nan nan nan 18 41 114 114 406 899 585 585 291 349 nan nan nan nan nan nan nan nan nan nan nan nan 45 45 59 95 100 100 135 147 142 142 162 136 136 121 110 89
7 6 6 6 5 5 4 3 3 3 2 2 1 1 1 1 80 218 218 280 282 60 60 37 nan nan nan nan nan nan nan nan nan nan nan nan nan nan nan nan nan nan nan nan nan nan nan nan nan nan nan nan nan 0 0 nan nan nan nan 1 94 131 131 85 141 141 116 135 97
6 6 6 5 5 5 4 3 3 3 3 1 0 0 0 0 0 51 51 100 31 nan nan nan nan nan nan nan nan nan nan nan nan nan nan nan nan nan nan nan nan nan nan nan nan nan nan nan nan nan nan nan nan nan nan nan nan nan nan 0 0 nan nan 4 3 3 131 116 51
6 5 5 4 4 4 3 4 4 4 3 1 1 1 1 0 nan nan nan nan nan nan nan nan nan nan nan nan nan nan nan nan nan nan nan nan nan nan nan nan 0 nan nan nan nan nan nan nan nan nan nan nan nan nan nan nan nan nan nan nan nan nan nan nan nan nan nan 35 16
6 6 6 5 3 3 4 3 3 3 2 1 2 1 1 0 0 nan nan nan nan nan nan nan nan nan nan nan nan nan nan nan nan nan nan nan nan nan nan nan nan nan nan nan nan nan nan nan nan nan nan nan nan nan nan nan nan nan nan nan nan nan nan nan nan nan nan nan nan
8 7 7 6 4 4 3 3 2 2 2 2 1 1 1 1 1 nan nan nan nan nan nan nan nan nan nan nan nan nan nan nan nan nan nan nan nan nan nan nan nan nan nan nan nan nan nan nan nan nan nan nan nan nan nan nan nan nan nan nan nan nan nan nan nan nan nan nan nan
8 6 6 5 4 4 3 2 2 2 2 1 1 1 1 0 1 nan nan nan nan nan nan nan nan nan nan nan nan nan nan nan nan nan nan nan nan nan nan nan nan nan nan nan nan nan nan nan nan nan nan nan nan nan nan nan nan nan nan nan nan nan nan nan nan nan nan nan nan
8 7 7 6 5 5 3 3 2 2 1 2 1 2 2 1 1 nan nan nan nan nan nan nan nan nan nan nan nan nan nan nan nan nan nan nan nan nan nan nan nan nan nan nan nan nan nan nan nan nan nan nan nan nan nan nan nan nan nan nan nan nan nan nan nan nan nan nan nan
8 8 8 6 4 4 3 3 2 2 2 1 1 1 1 1 1 nan nan nan nan nan nan nan nan nan nan nan nan nan nan nan nan nan nan nan nan nan nan nan nan nan nan nan nan nan nan nan nan nan nan nan nan nan nan nan nan nan nan nan nan nan nan nan nan nan nan nan nan
7 7 7 5 5 5 4 3 3 3 2 1 2 1 1 1 1 0 0 nan nan nan nan nan nan nan nan nan nan nan nan nan nan nan nan nan nan nan nan nan nan nan nan nan nan nan nan nan nan nan nan nan nan nan nan nan nan nan nan nan nan nan nan nan nan nan nan nan nan
4 7 7 6 6 6 4 4 3 3 2 1 1 1 1 1 1 1 1 nan 0 0 0 nan nan nan nan nan nan nan nan nan nan nan nan nan nan nan nan nan nan nan nan nan nan nan nan nan nan nan nan nan nan nan nan nan nan nan nan nan nan nan nan nan nan nan nan nan nan
5 6 6 7 6 6 4 5 4 4 3 2 2 1 1 1 0 2 2 0 0 nan nan nan nan nan nan nan nan nan nan nan nan nan nan nan nan nan nan nan nan nan nan nan nan nan nan nan nan nan nan nan nan nan nan nan nan nan nan nan nan nan nan nan nan nan nan nan nan